Quemado, NM

5:52 PM MDT on August 29, 2016 (GMT -0600)
Lordsburg

Weather History for KLSB - November, 2013

Change the Weather History Date:

Sunday, November 24, 2013

  Actual Average Record
Temperature  
Mean Temperature 32 °F -  
Max Temperature 33 °F 63 °F 68 °F (2015)
Min Temperature 30 °F 27 °F 19 °F (2014)
Degree Days  
Heating Degree Days 34    
Moisture  
Dew Point 28 °F    
Average Humidity 89    
Maximum Humidity 93    
Minimum Humidity 80    
Precipitation  
Precipitation 0.01 in - - ()
Sea Level Pressure  
Sea Level Pressure 30.20 in    
Wind  
Wind Speed 21 mph (SE)    
Max Wind Speed 30 mph    
Max Gust Speed 39 mph    
Visibility 9 miles    
Events Snow    
Averages and records for this station are not official NWS values.
T = Trace of Precipitation, MM = Missing Value Source: NWS Daily Summary

Daily Weather History Graph

Daily Weather History Graph

Search for Another Location

Airport or City:

Trip Planner

Search our weather history database for the weather conditions in past years. The results will help you decide how hot, cold, wet, or windy it might be!

Date:

Astronomy

Nov. 24, 2013 Rise Set
Actual Time 6:52 AM MST 5:10 PM MST
Civil Twilight 6:25 AM MST 5:37 PM MST
Nautical Twilight 5:55 AM MST 6:07 PM MST
Astronomical Twilight 5:26 AM MST 6:36 PM MST
Moon 11:28 PM MST (11/24) 11:51 AM MST (11/24)
Length of Visible Light 11h 11m
Length of Day
10h 18m
Waning Gibbous, 60% of the Moon is Illuminated
Nov 24
Waning Gibbous
Nov 25
Last Quarter
Dec 2
New
Dec 9
First Quarter
Dec 17
Full

Hourly Weather History & Observations

Time (MST) Temp. Windchill Dew Point Humidity Pressure Visibility Wind Dir Wind Speed Gust Speed Precip Events Conditions
12:15 AM 32.0 °F 17.6 °F 30.2 °F 93% 30.21 in 7.0 mi ESE 29.9 mph 39.1 mph N/A   Overcast
12:35 AM 32.0 °F 17.6 °F 30.2 °F 93% 30.20 in 10.0 mi ESE 29.9 mph 38.0 mph N/A   Overcast
12:55 AM 32.0 °F 17.6 °F 28.4 °F 87% 30.20 in 10.0 mi ESE 29.9 mph 39.1 mph N/A   Overcast
1:15 AM 32.0 °F 18.6 °F 30.2 °F 93% 30.20 in 10.0 mi ESE 25.3 mph 33.4 mph N/A   Overcast
1:35 AM 32.0 °F 18.9 °F 30.2 °F 93% 30.20 in 4.0 mi ESE 24.2 mph 34.5 mph N/A Snow Light Snow
1:55 AM 32.0 °F 18.9 °F 30.2 °F 93% 30.19 in 7.0 mi ESE 24.2 mph 31.1 mph N/A   Mostly Cloudy
2:15 AM 32.0 °F 18.4 °F 28.4 °F 87% 30.19 in 10.0 mi ESE 26.5 mph 33.4 mph N/A   Mostly Cloudy
2:35 AM 32.0 °F 18.4 °F 28.4 °F 87% 30.19 in 10.0 mi ESE 26.5 mph 36.8 mph N/A   Mostly Cloudy
2:55 AM 32.0 °F 18.6 °F 28.4 °F 87% 30.20 in 10.0 mi ESE 25.3 mph 38.0 mph N/A   Overcast
3:15 AM 32.0 °F 18.1 °F 28.4 °F 87% 30.19 in 7.0 mi ESE 27.6 mph 34.5 mph N/A Snow Light Snow
3:35 AM 32.0 °F 19.2 °F 28.4 °F 87% 30.20 in 4.0 mi ESE 23.0 mph 29.9 mph N/A Snow Light Snow
3:55 AM 32.0 °F 18.6 °F 28.4 °F 87% 30.20 in 5.0 mi ESE 25.3 mph 35.7 mph N/A Snow Light Snow
4:15 AM 32.0 °F 18.4 °F 28.4 °F 87% 30.20 in 1.0 mi ESE 26.5 mph 33.4 mph N/A Snow Light Snow
4:35 AM 30.2 °F 17.1 °F 28.4 °F 93% 30.19 in 0.5 mi ESE 21.9 mph 29.9 mph 0.01 in Snow Heavy Snow
4:55 AM 30.2 °F 17.1 °F 28.4 °F 93% 30.19 in 4.0 mi ESE 21.9 mph 27.6 mph 0.01 in Snow Light Snow
5:15 AM 30.2 °F 16.8 °F 28.4 °F 93% 30.19 in 5.0 mi ESE 23.0 mph 33.4 mph N/A   Overcast
5:35 AM 30.2 °F 17.4 °F 28.4 °F 93% 30.19 in 1.5 mi ESE 20.7 mph 31.1 mph N/A Snow Light Snow
5:55 AM 30.2 °F 17.1 °F 28.4 °F 93% 30.20 in 5.0 mi ESE 21.9 mph 29.9 mph N/A Snow Light Snow
6:15 AM 30.2 °F 16.8 °F 28.4 °F 93% 30.21 in 7.0 mi ESE 23.0 mph 28.8 mph N/A   Overcast
6:35 AM 30.2 °F 18.1 °F 28.4 °F 93% 30.21 in 10.0 mi ESE 18.4 mph 28.8 mph N/A   Overcast
6:55 AM 30.2 °F 17.8 °F 28.4 °F 93% 30.22 in 10.0 mi ESE 19.6 mph 26.5 mph N/A   Overcast
7:15 AM 30.2 °F 17.1 °F 28.4 °F 93% 30.22 in 10.0 mi ESE 21.9 mph 27.6 mph N/A   Overcast
7:35 AM 30.2 °F 16.5 °F 26.6 °F 86% 30.21 in 10.0 mi ESE 24.2 mph 31.1 mph N/A   Overcast
7:55 AM 30.2 °F 16.5 °F 26.6 °F 86% 30.22 in 10.0 mi ESE 24.2 mph 32.2 mph N/A   Overcast
8:15 AM 30.2 °F 16.5 °F 26.6 °F 86% 30.23 in 7.0 mi ESE 24.2 mph 33.4 mph N/A   Overcast
8:35 AM 32.0 °F 19.5 °F 26.6 °F 80% 30.25 in 10.0 mi ESE 21.9 mph 27.6 mph N/A   Overcast
8:55 AM 30.2 °F 16.8 °F 26.6 °F 86% 30.24 in 10.0 mi ESE 23.0 mph 32.2 mph N/A   Overcast
9:15 AM 30.2 °F 17.4 °F 28.4 °F 93% 30.25 in 10.0 mi ESE 20.7 mph 28.8 mph N/A   Overcast
9:35 AM 32.0 °F 19.2 °F 26.6 °F 80% 30.25 in 10.0 mi ESE 23.0 mph 27.6 mph N/A   Overcast
9:55 AM 32.0 °F 20.8 °F 28.4 °F 87% 30.25 in 10.0 mi ESE 17.3 mph 29.9 mph N/A   Overcast
10:15 AM 32.0 °F 21.2 °F 28.4 °F 87% 30.26 in 10.0 mi ESE 16.1 mph 29.9 mph N/A   Overcast
10:35 AM 32.0 °F - 28.4 °F 87% 30.25 in 10.0 mi North - - N/A   Overcast
10:55 AM 32.0 °F 20.5 °F 28.4 °F 87% 30.24 in 10.0 mi ESE 18.4 mph - N/A   Overcast
11:35 AM 33.8 °F - 28.4 °F 81% 30.23 in 10.0 mi North - - N/A   Overcast
11:55 AM 32.0 °F 18.9 °F 28.4 °F 87% 30.21 in 10.0 mi ESE 24.2 mph - N/A   Overcast
12:15 PM 32.0 °F 19.8 °F 28.4 °F 87% 30.21 in 10.0 mi ESE 20.7 mph - N/A   Overcast
12:35 PM 32.0 °F 20.8 °F 28.4 °F 87% 30.21 in 10.0 mi ESE 17.3 mph 23.0 mph N/A   Overcast
12:55 PM 32.0 °F 20.8 °F 28.4 °F 87% 30.20 in 10.0 mi ESE 17.3 mph 21.9 mph N/A   Overcast
1:15 PM 32.0 °F 20.8 °F 28.4 °F 87% 30.19 in 10.0 mi ESE 17.3 mph 20.7 mph N/A   Overcast
1:35 PM 32.0 °F 21.2 °F 28.4 °F 87% 30.19 in 10.0 mi ESE 16.1 mph 23.0 mph N/A   Overcast
1:55 PM 32.0 °F 21.2 °F 28.4 °F 87% 30.19 in 10.0 mi ESE 16.1 mph 20.7 mph N/A   Overcast
2:15 PM 32.0 °F 22.5 °F 28.4 °F 87% 30.19 in 10.0 mi ESE 12.7 mph 20.7 mph N/A   Overcast
2:35 PM 32.0 °F 22.1 °F 28.4 °F 87% 30.19 in 10.0 mi ESE 13.8 mph - N/A   Overcast
2:55 PM 32.0 °F 21.6 °F 28.4 °F 87% 30.19 in 10.0 mi SE 15.0 mph 21.9 mph N/A   Overcast
3:15 PM 32.0 °F 21.6 °F 28.4 °F 87% 30.19 in 10.0 mi ESE 15.0 mph - N/A   Overcast
3:35 PM 32.0 °F 21.6 °F 28.4 °F 87% 30.19 in 10.0 mi SE 15.0 mph - N/A   Overcast
3:55 PM 32.0 °F 21.2 °F 28.4 °F 87% 30.19 in 10.0 mi SE 16.1 mph - N/A   Overcast
4:15 PM 32.0 °F 21.2 °F 28.4 °F 87% 30.18 in 10.0 mi ESE 16.1 mph 20.7 mph N/A   Overcast
4:35 PM 32.0 °F 21.6 °F 28.4 °F 87% 30.18 in 10.0 mi ESE 15.0 mph - N/A   Mostly Cloudy
4:55 PM 32.0 °F 22.1 °F 28.4 °F 87% 30.18 in 10.0 mi ESE 13.8 mph 19.6 mph N/A   Scattered Clouds
5:15 PM 32.0 °F 24.2 °F 28.4 °F 87% 30.19 in 10.0 mi SSE 9.2 mph - N/A   Clear
5:35 PM 32.0 °F 23.6 °F 28.4 °F 87% 30.19 in 10.0 mi SSE 10.4 mph - N/A   Clear
5:55 PM 30.2 °F 21.9 °F 28.4 °F 93% 30.19 in 10.0 mi SSE 9.2 mph - N/A   Clear
6:15 PM 30.2 °F 21.9 °F 28.4 °F 93% 30.19 in 10.0 mi SSE 9.2 mph - N/A   Clear
6:35 PM 30.2 °F 21.9 °F 28.4 °F 93% 30.19 in 10.0 mi SSE 9.2 mph - N/A   Clear
6:55 PM 30.2 °F 20.8 °F 28.4 °F 93% 30.19 in 10.0 mi SSE 11.5 mph - N/A   Scattered Clouds
7:15 PM 30.2 °F 21.3 °F 28.4 °F 93% 30.19 in 10.0 mi SSE 10.4 mph - N/A   Scattered Clouds
7:35 PM 30.2 °F 21.9 °F 28.4 °F 93% 30.19 in 10.0 mi SSE 9.2 mph - N/A   Clear
7:55 PM 30.2 °F 22.6 °F 28.4 °F 93% 30.19 in 10.0 mi SSE 8.1 mph - N/A   Clear
8:15 PM 30.2 °F 23.4 °F 28.4 °F 93% 30.20 in 10.0 mi SSE 6.9 mph - N/A   Mostly Cloudy
8:35 PM 30.2 °F 23.4 °F 28.4 °F 93% 30.21 in 10.0 mi SSE 6.9 mph - N/A   Overcast
8:55 PM 32.0 °F 24.8 °F 28.4 °F 87% 30.21 in 10.0 mi SSE 8.1 mph - N/A   Overcast
9:15 PM 30.2 °F 22.6 °F 28.4 °F 93% 30.21 in 10.0 mi SE 8.1 mph - N/A   Overcast
9:35 PM 30.2 °F 23.4 °F 28.4 °F 93% 30.20 in 10.0 mi SSE 6.9 mph - N/A   Overcast
9:55 PM 30.2 °F 23.4 °F 28.4 °F 93% 30.20 in 10.0 mi SSE 6.9 mph - N/A   Overcast
10:15 PM 32.0 °F 25.6 °F 28.4 °F 87% 30.20 in 10.0 mi SE 6.9 mph - N/A   Overcast
10:35 PM 32.0 °F 25.6 °F 28.4 °F 87% 30.20 in 10.0 mi ESE 6.9 mph - N/A   Overcast
10:55 PM 32.0 °F 26.4 °F 28.4 °F 87% 30.20 in 10.0 mi SE 5.8 mph - N/A   Overcast
11:15 PM 32.0 °F 27.5 °F 28.4 °F 87% 30.20 in 10.0 mi ESE 4.6 mph - N/A   Overcast
11:35 PM 30.2 °F 24.3 °F 28.4 °F 93% 30.19 in 10.0 mi ESE 5.8 mph - N/A   Overcast
11:55 PM 30.2 °F 24.3 °F 28.4 °F 93% 30.19 in 10.0 mi SE 5.8 mph - N/A   Overcast